H1 CPF 2 NER 2020 12 26 9 361 01 glonass131 H2 1301901 9131 39155 2020 12 26 0 0 0 2020 12 29 23 45 0 900 1 1 0 0 0 1 H9 10 0 59209 0.00000 0 -11613622.894 3276318.944 22498309.692 10 0 59209 900.00000 0 -13589268.931 1418020.801 21559615.571 10 0 59209 1800.00000 0 -15588132.534 -200473.319 20203024.397 10 0 59209 2700.00000 0 -17546738.841 -1555830.622 18454542.366 10 0 59209 3600.00000 0 -19399901.563 -2637109.771 16347810.683 10 0 59209 4500.00000 0 -21083359.106 -3445988.431 13923478.198 10 0 59209 5400.00000 0 -22536398.349 -3996456.669 11228433.991 10 0 59209 6300.00000 0 -23704356.183 -4313987.681 8314912.809 10 0 59209 7200.00000 0 -24540892.910 -4434219.618 5239489.361 10 0 59209 8100.00000 0 -25009940.372 -4401203.370 2061980.239 10 0 59209 9000.00000 0 -25087240.599 -4265290.139 -1155725.317 10 0 59209 9900.00000 0 -24761407.680 -4080748.637 -4350882.271 10 0 59209 10800.00000 0 -24034465.649 -3903214.047 -7461129.343 10 0 59209 11700.00000 0 -22921837.517 -3787078.729 -10425725.319 10 0 59209 12600.00000 0 -21451784.325 -3782937.634 -13186755.814 10 0 59209 13500.00000 0 -19664316.950 -3935199.411 -15690284.809 10 0 59209 14400.00000 0 -17609626.327 -4279967.108 -17887426.405 10 0 59209 15300.00000 0 -15346098.707 -4843280.716 -19735314.036 10 0 59209 16200.00000 0 -12938000.496 -5639797.956 -21197946.916 10 0 59209 17100.00000 0 -10452931.223 -6671970.582 -22246896.427 10 0 59209 18000.00000 0 -7959152.992 -7929751.773 -22861858.374 10 0 59209 18900.00000 0 -5522909.525 -9390847.133 -23031040.682 10 0 59209 19800.00000 0 -3205847.709 -11021498.393 -22751379.756 10 0 59209 20700.00000 0 -1062649.748 -12777765.932 -22028582.416 10 0 59209 21600.00000 0 861025.809 -14607255.204 -20876994.041 10 0 59209 22500.00000 0 2530209.524 -16451213.378 -19319297.035 10 0 59209 23400.00000 0 3921825.481 -18246907.133 -17386047.104 10 0 59209 24300.00000 0 5025387.126 -19930181.097 -15115057.914 10 0 59209 25200.00000 0 5843158.606 -21438089.263 -12550647.512 10 0 59209 26100.00000 0 6389778.223 -22711489.129 -9742762.392 10 0 59209 27000.00000 0 6691363.199 -23697490.390 -6745997.211 10 0 59209 27900.00000 0 6784136.403 -24351656.608 -3618529.813 10 0 59209 28800.00000 0 6712635.291 -24639868.962 -420992.707 10 0 59209 29700.00000 0 6527580.359 -24539775.663 2784697.178 10 0 59209 30600.00000 0 6283493.980 -24041768.032 5936528.123 10 0 59209 31500.00000 0 6036170.312 -23149444.001 8973580.215 10 0 59209 32400.00000 0 5840102.569 -21879540.944 11837187.059 10 0 59209 33300.00000 0 5745975.182 -20261341.490 14472051.492 10 0 59209 34200.00000 0 5798325.250 -18335577.391 16827295.249 10 0 59209 35100.00000 0 6033470.404 -16152876.749 18857424.048 10 0 59209 36000.00000 0 6477789.115 -13771818.181 20523191.191 10 0 59209 36900.00000 0 7146424.937 -11256671.259 21792344.527 10 0 59209 37800.00000 0 8042468.980 -8674915.015 22640243.686 10 0 59209 38700.00000 0 9156655.534 -6094635.087 23050336.554 10 0 59209 39600.00000 0 10467584.956 -3581905.201 23014486.103 10 0 59209 40500.00000 0 11942466.622 -1198259.311 22533141.026 10 0 59209 41400.00000 0 13538353.532 1001642.605 21615346.010 10 0 59209 42300.00000 0 15203819.851 2972059.406 20278590.026 10 0 59209 43200.00000 0 16881014.262 4677840.093 18548493.627 10 0 59209 44100.00000 0 18508005.906 6095651.995 16458339.104 10 0 59209 45000.00000 0 20021326.824 7214714.070 14048450.241 10 0 59209 45900.00000 0 21358605.728 8037003.748 11365431.458 10 0 59209 46800.00000 0 22461183.070 8576927.456 8461279.117 10 0 59209 47700.00000 0 23276596.992 8860467.473 5392380.848 10 0 59209 48600.00000 0 23760834.280 8923840.086 2218421.525 10 0 59209 49500.00000 0 23880249.427 8811721.213 -998782.987 10 0 59209 50400.00000 0 23613068.389 8575114.527 -4196500.885 10 0 59209 51300.00000 0 22950410.920 8268953.154 -7312323.422 10 0 59209 52200.00000 0 21896785.810 7949537.983 -10285401.949 10 0 59209 53100.00000 0 20470035.979 7671923.192 -13057656.690 10 0 59209 54000.00000 0 18700734.218 7487362.228 -15574931.555 10 0 59209 54900.00000 0 16631054.186 7440925.043 -17788070.358 10 0 59209 55800.00000 0 14313164.174 7569389.961 -19653891.562 10 0 59209 56700.00000 0 11807211.681 7899501.539 -21136041.207 10 0 59209 57600.00000 0 9178984.441 8446669.680 -22205706.555 10 0 59209 58500.00000 0 6497347.296 9214165.914 -22842176.195 10 0 59209 59400.00000 0 3831563.457 10192851.058 -23033236.009 10 0 59209 60300.00000 0 1248613.104 11361445.385 -22775394.023 10 0 59209 61200.00000 0 -1189378.076 12687329.058 -22073930.884 10 0 59209 62100.00000 0 -3427493.288 14127837.908 -20942776.432 10 0 59209 63000.00000 0 -5420064.676 15631998.705 -19404216.278 10 0 59209 63900.00000 0 -7132315.473 17142629.552 -17488435.772 10 0 59209 64800.00000 0 -8541538.154 18598716.011 -15232911.767 10 0 59209 65700.00000 0 -9637762.309 19937962.320 -12681665.391 10 0 59209 66600.00000 0 -10423887.555 21099410.151 -9884391.662 10 0 59209 67500.00000 0 -10915279.358 22026015.055 -6895483.790 10 0 59209 68400.00000 0 -11138848.003 22667073.038 -3772971.813 10 0 59209 69300.00000 0 -11131652.237 22980396.389 -577396.585 10 0 59209 70200.00000 0 -10939088.629 22934148.829 2629359.008 10 0 59209 71100.00000 0 -10612744.415 22508264.473 5785259.329 10 0 59209 72000.00000 0 -10208005.016 21695392.609 8829303.304 10 0 59209 72900.00000 0 -9781517.052 20501330.005 11702687.896 10 0 59209 73800.00000 0 -9388613.071 18944923.490 14349926.561 10 0 59209 74700.00000 0 -9080805.265 17057447.268 16719902.573 10 0 59209 75600.00000 0 -8903452.272 14881480.612 18766838.633 10 0 59209 76500.00000 0 -8893695.736 12469331.714 20451165.749 10 0 59209 77400.00000 0 -9078752.151 9881071.722 21740276.153 10 0 59209 78300.00000 0 -9474630.964 7182258.515 22609147.077 10 0 59209 79200.00000 0 -10085332.682 4441442.185 23040824.249 10 0 59209 80100.00000 0 -10902561.229 1727553.165 23026756.107 10 0 59209 81000.00000 0 -11905964.066 -892721.284 22566972.109 10 0 59209 81900.00000 0 -13063892.105 -3357465.687 21670100.820 10 0 59209 82800.00000 0 -14334650.141 -5611866.831 20353226.037 10 0 59209 83700.00000 0 -15668188.226 -7610250.450 18641581.851 10 0 59209 84600.00000 0 -17008165.832 -9317739.908 16568090.300 10 0 59209 85500.00000 0 -18294304.554 -10711467.429 14172748.277 10 0 59210 0.00000 0 -19464932.342 -11781286.678 11501873.343 10 0 59210 900.00000 0 -20459613.089 -12529955.539 8607220.703 10 0 59210 1800.00000 0 -21221751.396 -12972780.671 5544988.031 10 0 59210 2700.00000 0 -21701060.766 -13136736.661 2374725.311 10 0 59210 3600.00000 0 -21855790.688 -13059097.261 -841828.277 10 0 59210 4500.00000 0 -21654615.178 -12785635.284 -4041957.572 10 0 59210 5400.00000 0 -21078100.800 -12368468.073 -7163209.798 10 0 59210 6300.00000 0 -20119689.205 -11863640.654 -10144632.280 10 0 59210 7200.00000 0 -18786150.187 -11328550.604 -12927983.185 10 0 59210 8100.00000 0 -17097484.044 -10819325.854 -15458889.520 10 0 59210 9000.00000 0 -15086275.933 -10388268.912 -17687927.714 10 0 59210 9900.00000 0 -12796528.756 -10081478.086 -19571603.788 10 0 59210 10800.00000 0 -10282023.643 -9936748.543 -21073212.649 10 0 59210 11700.00000 0 -7604277.452 -9981843.620 -22163558.896 10 0 59210 12600.00000 0 -4830183.975 -10233210.516 -22821524.714 10 0 59210 13500.00000 0 -2029438.688 -10695194.916 -23034474.090 10 0 59210 14400.00000 0 728144.254 -11359787.431 -22798486.180 10 0 59210 15300.00000 0 3375309.962 -12206911.558 -22118414.390 10 0 59210 16200.00000 0 5849923.784 -13205239.733 -21007771.439 10 0 59210 17100.00000 0 8097309.035 -14313501.465 -19488444.161 10 0 59210 18000.00000 0 10072265.069 -15482226.776 -17590245.220 10 0 59210 18900.00000 0 11740683.528 -16655850.036 -15350312.032 10 0 59210 19800.00000 0 13080697.821 -17775084.385 -12812365.973 10 0 59210 20700.00000 0 14083320.789 -18779465.972 -10025847.567 10 0 59210 21600.00000 0 14752547.217 -19609960.644 -7044945.463 10 0 59210 22500.00000 0 15104920.171 -20211523.595 -3927538.700 10 0 59210 23400.00000 0 15168582.435 -20535504.968 -734073.322 10 0 59210 24300.00000 0 14981855.496 -20541801.310 2473604.897 10 0 59210 25200.00000 0 14591407.792 -20200663.762 5633439.292 10 0 59210 26100.00000 0 14050090.491 -19494088.424 8684350.281 10 0 59210 27000.00000 0 13414532.298 -18416731.785 11567400.520 10 0 59210 27900.00000 0 12742594.201 -16976313.788 14226916.072 10 0 59210 28800.00000 0 12090790.273 -15193492.094 16611543.378 10 0 59210 29700.00000 0 11511781.644 -13101212.643 18675223.358 10 0 59210 30600.00000 0 11052047.335 -10743562.697 20378065.581 10 0 59210 31500.00000 0 10749828.286 -8174172.684 21687107.148 10 0 59210 32400.00000 0 10633429.582 -5454231.170 22576943.019 10 0 59210 33300.00000 0 10719951.396 -2650192.815 23030216.554 10 0 59210 34200.00000 0 11014501.760 168728.277 23037961.153 10 0 59210 35100.00000 0 11509924.882 2933178.721 22599786.259 10 0 59210 36000.00000 0 12187057.757 5576293.452 21723903.298 10 0 59210 36900.00000 0 13015506.359 8036223.865 20426989.685 10 0 59210 37800.00000 0 13954911.235 10258463.054 18733891.662 10 0 59210 38700.00000 0 14956651.980 12197872.401 16677169.492 10 0 59210 39600.00000 0 15965921.358 13820325.110 14296491.506 10 0 59210 40500.00000 0 16924083.832 15103897.645 11637886.469 10 0 59210 41400.00000 0 17771220.471 16039558.223 8752866.738 10 0 59210 42300.00000 0 18448753.409 16631322.119 5697437.806 10 0 59210 43200.00000 0 18902038.595 16895865.962 2531012.560 10 0 59210 44100.00000 0 19082815.986 16861616.097 -684748.839 10 0 59210 45000.00000 0 18951411.464 16567348.736 -3887150.235 10 0 59210 45900.00000 0 18478594.779 16060360.942 -7013697.195 10 0 59210 46800.00000 0 17647012.044 15394290.344 -10003335.315 10 0 59210 47700.00000 0 16452129.433 14626677.067 -12797662.862 10 0 59210 48600.00000 0 14902645.713 13816372.880 -15342091.920 10 0 59210 49500.00000 0 13020354.232 13020909.361 -17586933.313 10 0 59210 50400.00000 0 10839458.927 12293938.716 -19488382.194 10 0 59210 51300.00000 0 8405372.609 11682857.633 -21009383.724 10 0 59210 52200.00000 0 5773048.021 11226716.329 -22120361.031 10 0 59210 53100.00000 0 3004912.429 10954502.305 -22799790.889 10 0 59210 54000.00000 0 168493.103 10883871.705 -23034616.154 10 0 59210 54900.00000 0 -2666166.009 11020381.556 -22820487.588 10 0 59210 55800.00000 0 -5429187.585 11357254.326 -22161831.494 10 0 59210 56700.00000 0 -8053531.798 11875683.252 -21071743.208 10 0 59210 57600.00000 0 -10477543.469 12545663.715 -19571710.089 10 0 59210 58500.00000 0 -12647269.953 13327313.617 -17691170.996 10 0 59210 59400.00000 0 -14518454.542 14172625.165 -15466922.406 10 0 59210 60300.00000 0 -16058124.351 15027572.522 -12942384.114 10 0 59210 61200.00000 0 -17245708.919 15834485.164 -10166740.088 10 0 59210 62100.00000 0 -18073645.796 16534586.104 -7193972.173 10 0 59210 63000.00000 0 -18547450.988 17070587.733 -4081806.085 10 0 59210 63900.00000 0 -18685254.310 17389236.143 -890590.673 10 0 59210 64800.00000 0 -18516821.989 17443697.516 2317867.804 10 0 59210 65700.00000 0 -18082109.786 17195687.126 5481494.066 10 0 59210 66600.00000 0 -17429408.998 16617252.660 8539132.427 10 0 59210 67500.00000 0 -16613164.115 15692138.128 11431713.640 10 0 59210 68400.00000 0 -15691553.866 14416672.069 14103378.746 10 0 59210 69300.00000 0 -14723936.656 12800143.449 16502539.658 10 0 59210 70200.00000 0 -13768266.454 10864649.511 18582857.722 10 0 59210 71100.00000 0 -12878585.991 8644421.241 20304123.124 10 0 59210 72000.00000 0 -12102700.701 6184653.287 21633019.687 10 0 59210 72900.00000 0 -11480129.288 3539884.999 22543761.710 10 0 59210 73800.00000 0 -11040415.531 771997.349 23018591.496 10 0 59210 74700.00000 0 -10801871.318 -2052093.928 23048128.381 10 0 59210 75600.00000 0 -10770803.495 -4862956.235 22631562.396 10 0 59210 76500.00000 0 -10941257.608 -7591267.552 21776688.028 10 0 59210 77400.00000 0 -11295290.589 -10170446.781 20499776.079 10 0 59210 78300.00000 0 -11803762.842 -12539179.779 18825284.278 10 0 59210 79200.00000 0 -12427618.664 -14643737.330 16785410.005 10 0 59210 80100.00000 0 -13119603.417 -16439988.938 14419491.513 10 0 59210 81000.00000 0 -13826347.196 -17895028.217 11773266.931 10 0 59210 81900.00000 0 -14490728.709 -18988341.056 8898003.411 10 0 59210 82800.00000 0 -15054420.393 -19712466.236 5849511.822 10 0 59210 83700.00000 0 -15460507.187 -20073119.263 2687065.216 10 0 59210 84600.00000 0 -15656067.285 -20088772.777 -527758.172 10 0 59210 85500.00000 0 -15594603.861 -19789710.019 -3732284.254 10 0 59211 0.00000 0 -15238222.519 -19216590.761 -6863980.035 10 0 59211 900.00000 0 -14559458.975 -18418590.271 -9861692.732 10 0 59211 1800.00000 0 -13542678.074 -17451190.753 -12666863.909 10 0 59211 2700.00000 0 -12184979.928 -16373720.134 -15224693.900 10 0 59211 3600.00000 0 -10496574.885 -15246743.890 -17485230.943 10 0 59211 4500.00000 0 -8500608.197 -14129422.511 -19404362.077 10 0 59211 5400.00000 0 -6232441.373 -13076948.207 -20944685.058 10 0 59211 6300.00000 0 -3738419.815 -12138170.927 -22076243.399 10 0 59211 7200.00000 0 -1074178.803 -11353515.191 -22777109.744 10 0 59211 8100.00000 0 1697440.552 -10753276.191 -23033806.480 10 0 59211 9000.00000 0 4508777.329 -10356366.860 -22841556.046 10 0 59211 9900.00000 0 7289938.071 -10169567.835 -22204357.127 10 0 59211 10800.00000 0 9971476.675 -10187310.384 -21134886.659 10 0 59211 11700.00000 0 12487054.827 -10391999.412 -19654231.044 10 0 59211 12600.00000 0 14775972.231 -10754860.648 -17791453.443 10 0 59211 13500.00000 0 16785462.040 -11237273.916 -15583007.117 10 0 59211 14400.00000 0 18472657.320 -11792534.094 -13072007.642 10 0 59211 15300.00000 0 19806148.494 -12367963.601 -10307379.466 10 0 59211 16200.00000 0 20767069.376 -12907285.950 -7342894.385 10 0 59211 17100.00000 0 21349669.240 -13353159.411 -4236121.335 10 0 59211 18000.00000 0 21561349.914 -13649763.661 -1047308.392 10 0 59211 18900.00000 0 21422169.164 -13745330.689 2161781.278 10 0 59211 19800.00000 0 20963833.611 -13594513.993 5329057.242 10 0 59211 20700.00000 0 20228225.276 -13160497.363 8393290.926 10 0 59211 21600.00000 0 19265524.755 -12416755.629 11295284.056 10 0 59211 22500.00000 0 18132010.184 -11348394.428 13978995.112 10 0 59211 23400.00000 0 16887623.976 -9953013.499 16392603.479 10 0 59211 24300.00000 0 15593408.393 -8241057.553 18489492.461 10 0 59211 25200.00000 0 14308915.873 -6235639.628 20229133.932 10 0 59211 26100.00000 0 13089700.824 -3971843.227 21577859.060 10 0 59211 27000.00000 0 11984995.980 -1495530.545 22509501.683 10 0 59211 27900.00000 0 11035668.878 1138296.087 23005902.860 10 0 59211 28800.00000 0 10272542.643 3867514.195 23057267.309 10 0 59211 29700.00000 0 9715150.639 6625201.818 22662364.748 10 0 59211 30600.00000 0 9370977.029 9342165.606 21828571.513 10 0 59211 31500.00000 0 9235215.722 11949574.123 20571750.304 10 0 59211 32400.00000 0 9291059.040 14381589.332 18915968.603 10 0 59211 33300.00000 0 9510505.718 16577888.500 16893058.967 10 0 59211 34200.00000 0 9855656.226 18485972.258 14542027.443 10 0 59211 35100.00000 0 10280442.788 20063162.651 11908319.255 10 0 59211 36000.00000 0 10732722.786 21278206.948 9042953.936 10 0 59211 36900.00000 0 11156648.178 22112418.717 6001545.207 10 0 59211 37800.00000 0 11495211.099 22560306.686 2843223.675 10 0 59211 38700.00000 0 11692857.351 22629663.212 -370516.987 10 0 59211 39600.00000 0 11698055.728 22341107.067 -3577027.380 10 0 59211 40500.00000 0 11465712.207 21727098.754 -6713738.594 10 0 59211 41400.00000 0 10959324.058 20830469.387 -9719401.596 10 0 59211 42300.00000 0 10152779.747 19702525.467 -12535303.482 10 0 59211 43200.00000 0 9031725.490 18400810.530 -15106434.746 10 0 59211 44100.00000 0 7594438.037 16986619.660 -17382582.661 10 0 59211 45000.00000 0 5852164.677 15522373.670 -19319327.500 10 0 59211 45900.00000 0 3828914.622 14068965.782 -20878920.736 10 0 59211 46800.00000 0 1560709.644 12683194.482 -22031027.137 10 0 59211 47700.00000 0 -905674.638 11415392.246 -22753315.853 10 0 59211 48600.00000 0 -3514423.672 10307350.803 -23031889.182 10 0 59211 49500.00000 0 -6202782.588 9390630.325 -22861541.301 10 0 59211 50400.00000 0 -8903449.718 8685323.040 -22245842.995 10 0 59211 51300.00000 0 -11547164.242 8199321.797 -21197052.103 10 0 59211 52200.00000 0 -14065379.401 7928122.269 -19735852.963 10 0 59211 53100.00000 0 -16392909.461 7855164.661 -17890931.514 10 0 59211 54000.00000 0 -18470440.500 7952697.790 -15698395.936 10 0 59211 54900.00000 0 -20246801.239 8183126.464 -13201055.456 10 0 59211 55800.00000 0 -21680900.679 8500782.965 -10447572.687 10 0 59211 56700.00000 0 -22743253.727 8854045.919 -7491506.978 10 0 59211 57600.00000 0 -23417033.553 9187715.747 -4390268.060 10 0 59211 58500.00000 0 -23698609.273 9445545.665 -1204000.833 10 0 59211 59400.00000 0 -23597549.139 9572821.250 2005576.993 10 0 59211 60300.00000 0 -23136091.535 9518880.134 5176362.149 10 0 59211 61200.00000 0 -22348107.915 9239466.383 8247055.465 10 0 59211 62100.00000 0 -21277602.565 8698821.441 11158331.882 10 0 59211 63000.00000 0 -19976812.747 7871424.680 13853969.511 10 0 59211 63900.00000 0 -18503988.764 6743311.371 16281917.305 10 0 59211 64800.00000 0 -16920946.149 5312913.205 18395282.480 10 0 59211 65700.00000 0 -15290491.018 3591386.101 20153220.344 10 0 59211 66600.00000 0 -13673824.523 1602410.864 21521710.915 10 0 59211 67500.00000 0 -12128032.829 -618526.500 22474208.769 10 0 59211 68400.00000 0 -10703765.489 -3025346.972 22992154.588 10 0 59211 69300.00000 0 -9443197.481 -5563035.437 23065338.983 10 0 59211 70200.00000 0 -8378358.733 -8169676.513 22692111.525 10 0 59211 71100.00000 0 -7529900.227 -10778787.899 21879430.202 10 0 59211 72000.00000 0 -6906348.324 -13321857.263 20642749.076 10 0 59211 72900.00000 0 -6503879.116 -15730979.844 19005744.493 10 0 59211 73800.00000 0 -6306623.453 -17941489.097 16999882.974 10 0 59211 74700.00000 0 -6287491.415 -19894471.907 14663836.845 10 0 59211 75600.00000 0 -6409483.222 -21539063.872 12042756.624 10 0 59211 76500.00000 0 -6627432.895 -22834428.264 9187412.183 10 0 59211 77400.00000 0 -6890112.283 -23751334.560 6153217.871 10 0 59211 78300.00000 0 -7142607.043 -24273268.690 2999159.463 10 0 59211 79200.00000 0 -7328863.841 -24397026.391 -213356.453 10 0 59211 80100.00000 0 -7394299.858 -24132762.758 -3421707.783 10 0 59211 81000.00000 0 -7288362.217 -23503494.336 -6563292.360 10 0 59211 81900.00000 0 -6966926.437 -22544073.682 -9576767.811 10 0 59211 82800.00000 0 -6394429.444 -21299679.272 -12403269.567 10 0 59211 83700.00000 0 -5545643.876 -19823884.849 -14987581.107 10 0 59211 84600.00000 0 -4407015.742 -18176390.662 -17279231.487 10 0 59211 85500.00000 0 -2977506.513 -16420513.830 -19233496.779 10 0 59212 0.00000 0 -1268902.268 -14620545.417 -20812284.409 10 0 59212 900.00000 0 694424.812 -12839087.380 -21984882.323 10 0 59212 1800.00000 0 2876291.839 -11134482.644 -22728557.578 10 0 59212 2700.00000 0 5229986.741 -9558448.372 -23028993.277 10 0 59212 3600.00000 0 7699999.932 -8154010.890 -22880555.739 10 0 59212 4500.00000 0 10224133.727 -6953829.704 -22286387.749 10 0 59212 5400.00000 0 12735899.972 -5978979.177 -21258327.499 10 0 59212 6300.00000 0 15167105.035 -5238237.222 -19816656.268 10 0 59212 7200.00000 0 17450513.565 -4727908.373 -17989681.378 10 0 59212 8100.00000 0 19522479.797 -4432185.739 -15813164.105 10 0 59212 9000.00000 0 21325437.015 -4324033.602 -13329605.092 10 0 59212 9900.00000 0 22810142.196 -4366550.606 -10587402.484 10 0 59212 10800.00000 0 23937583.652 -4514753.555 -7639900.168 10 0 59212 11700.00000 0 24680473.977 -4717704.546 -4544345.346 10 0 59212 12600.00000 0 25024268.085 -4920890.335 -1360776.202 10 0 59212 13500.00000 0 24967666.220 -5068752.781 1849138.648 10 0 59212 14400.00000 0 24522583.165 -5107263.546 5023286.702 10 0 59212 15300.00000 0 23713586.941 -4986434.876 8100301.617 10 0 59212 16200.00000 0 22576832.039 -4662661.540 11020734.699 10 0 59212 17100.00000 0 21158532.701 -4100796.274 13728186.459 10 0 59212 18000.00000 0 19513040.346 -3275872.500 16170377.771 10 0 59212 18900.00000 0 17700604.994 -2174402.683 18300141.675 10 0 59212 19800.00000 0 15784913.004 -795198.136 20076318.379 10 0 59212 20700.00000 0 13830502.292 850324.369 21464537.773 10 0 59212 21600.00000 0 11900160.778 2738363.051 22437875.775 10 0 59212 22500.00000 0 10052414.393 4833471.265 22977372.873 10 0 59212 23400.00000 0 8339207.355 7089788.829 23072405.349 10 0 59212 24300.00000 0 6803869.678 9452716.209 22720901.986 10 0 59212 25200.00000 0 5479455.462 11860965.062 21929401.386 10 0 59212 26100.00000 0 4387520.763 14248902.918 20712947.538 10 0 59212 27000.00000 0 3537392.148 16549097.342 19094823.866 10 0 59212 27900.00000 0 2925957.194 18694955.971 17106128.754 10 0 59212 28800.00000 0 2537986.884 20623353.921 14785198.435 10 0 59212 29700.00000 0 2346977.753 22277139.625 12176886.126 10 0 59212 30600.00000 0 2316479.763 23607414.224 9331709.285 10 0 59212 31500.00000 0 2401855.170 24575487.960 6304879.985 10 0 59212 32400.00000 0 2552394.818 25154429.918 3155236.205 10 0 59212 33300.00000 0 2713702.427 25330143.916 -55905.541 10 0 59212 34200.00000 0 2830245.274 25101923.048 -3265953.408 10 0 59212 35100.00000 0 2847961.709 24482457.537 -6412274.789 10 0 59212 36000.00000 0 2716812.872 23497293.894 -9433436.589 10 0 59212 36900.00000 0 2393167.824 22183767.258 -12270424.917 10 0 59212 37800.00000 0 1841918.166 20589451.642 -14867818.271 10 0 59212 38700.00000 0 1038229.705 18770193.889 -17174889.198 10 0 59212 39600.00000 0 -31145.472 16787815.260 -19146610.950 10 0 59212 40500.00000 0 -1367054.118 14707578.968 -20744548.027 10 0 59212 41400.00000 0 -2957660.033 12595531.808 -21937612.240 10 0 59212 42300.00000 0 -4778708.029 10515833.283 -22702669.062 10 0 59212 43200.00000 0 -6794322.756 8528185.551 -23024982.602 10 0 59212 44100.00000 0 -8958308.507 6685472.635 -22898491.151 10 0 59212 45000.00000 0 -11215894.645 5031707.848 -22325908.956 10 0 59212 45900.00000 0 -13505852.609 3600374.519 -21318653.598 10 0 59212 46800.00000 0 -15762894.911 2413227.831 -19896601.916 10 0 59212 47700.00000 0 -17920254.955 1479605.691 -18087680.826 10 0 59212 48600.00000 0 -19912339.353 796274.567 -15927302.569 10 0 59212 49500.00000 0 -21677341.930 347813.598 -13457656.804 10 0 59212 50400.00000 0 -23159710.584 107517.626 -10726874.631 10 0 59212 51300.00000 0 -24312364.935 38778.115 -7788081.814 10 0 59212 52200.00000 0 -25098573.553 96881.218 -4698360.337 10 0 59212 53100.00000 0 -25493414.045 231145.255 -1517639.013 10 0 59212 54000.00000 0 -25484757.020 387306.100 1692465.245 10 0 59212 54900.00000 0 -25073734.815 510049.292 4869833.246 10 0 59212 55800.00000 0 -24274677.287 545582.120 7953033.951 10 0 59212 56700.00000 0 -23114518.919 444137.823 10882497.418 10 0 59212 57600.00000 0 -21631703.012 162307.329 13601648.824 10 0 59212 58500.00000 0 -19874629.175 -334898.521 16057983.068 10 0 59212 59400.00000 0 -17899708.624 -1072341.978 18204060.876 10 0 59212 60300.00000 0 -15769107.390 -2063477.665 19998408.930 10 0 59212 61200.00000 0 -13548270.006 -3309551.667 21406308.217 10 0 59212 62100.00000 0 -11303324.778 -4799314.505 22400456.835 10 0 59212 63000.00000 0 -9098476.349 -6509261.322 22961495.515 10 0 59212 63900.00000 0 -6993491.889 -8404391.165 23078386.241 10 0 59212 64800.00000 0 -5041383.394 -10439456.327 22748636.659 10 0 59212 65700.00000 0 -3286380.923 -12560652.693 21978365.287 10 0 59212 66600.00000 0 -1762280.156 -14707683.705 20782205.030 10 0 59212 67500.00000 0 -491232.737 -16816115.030 19183045.095 10 0 59212 68400.00000 0 516969.934 -18819924.306 17211614.166 10 0 59212 69300.00000 0 1265088.674 -20654141.508 14905910.580 10 0 59212 70200.00000 0 1768095.122 -22257470.711 12310488.240 10 0 59212 71100.00000 0 2052310.041 -23574783.792 9475609.983 10 0 59212 72000.00000 0 2154056.323 -24559380.804 6456283.272 10 0 59212 72900.00000 0 2117882.669 -25174920.688 3311195.843 10 0 59212 73800.00000 0 1994432.663 -25396939.110 101571.636 10 0 59212 74700.00000 0 1838049.685 -25213887.125 -3110030.274 10 0 59212 75600.00000 0 1704220.246 -24627644.557 -6260949.375 10 0 59212 76500.00000 0 1646965.842 -23653484.316 -9289664.366 10 0 59212 77400.00000 0 1716296.252 -22319487.583 -12137014.523 10 0 59212 78300.00000 0 1955834.905 -20665433.614 -14747375.792 10 0 59212 79200.00000 0 2400719.741 -18741210.786 -17069766.511 10 0 59212 80100.00000 0 3075871.061 -16604816.359 -19058859.229 10 0 59212 81000.00000 0 3994701.871 -14320030.249 -20675877.336 10 0 59212 81900.00000 0 5158326.930 -11953861.956 -21889358.057 10 0 59212 82800.00000 0 6555304.888 -9573879.455 -22675766.376 10 0 59212 83700.00000 0 8161924.764 -7245533.353 -23019948.078 10 0 59212 84600.00000 0 9943024.541 -5029589.262 -22915413.687 10 0 59212 85500.00000 0 11853306.716 -2979776.230 -22364448.749 99